This demonstration page uses our WeatherBlox Daily Observations layout. Learn more.

Hourly Observations for January 5, 2016

Temp ( °F °C ) Dew Point ( °F °C ) Humidity (%) Winds ( mph kmh ) Pressure ( in mb ) Visibility ( mi km ) Precip ( " mm )
12:15 am 00:15 Cloudy with Mist and Fog 23 -5 22 -5.8 94 94 S 16 26 30.27 1025 5 8.0467 0 0
12:35 am 00:35 Cloudy with Mist and Fog 23 -4.8 22 -5.6 94 94 S 16 26 30.27 1025 5 8.0467 0 0
12:55 am 00:55 Cloudy with Mist and Fog 23 -4.8 22 -5.5 95 95 S 15 24 30.27 1025 5 8.0467 0 0
1:15 am 01:15 Cloudy with Mist and Fog 24 -4.7 22 -5.5 94 94 S 15 24 30.27 1025 4 6.43736 0 0
1:35 am 01:35 Cloudy with Mist and Fog 24 -4.7 22 -5.5 94 94 S 17 28 30.27 1025 3 4.82802 0 0
1:55 am 01:55 Cloudy with Mist and Fog 24 -4.6 22 -5.3 95 95 S 16 26 30.27 1025 3 4.82802 0 0
2:15 am 02:15 Cloudy with Mist and Fog 24 -4.5 23 -5.2 95 95 S 15 24 30.27 1025 3 4.82802 0 0
2:35 am 02:35 Cloudy with Mist and Fog 24 -4.5 23 -5.1 96 96 S 12 19 30.27 1025 3 4.82802 0 0
2:55 am 02:55 Cloudy with Mist and Fog 24 -4.2 23 -5 94 94 S 14 22 30.27 1025 3 4.82802 0 0
3:15 am 03:15 Cloudy with Mist and Fog 25 -4.1 23 -4.8 95 95 SSE 15 24 30.27 1025 3 4.82802 0 0
3:35 am 03:35 Cloudy with Mist and Fog 25 -4.1 23 -4.8 95 95 SSE 12 19 30.27 1025 3 4.82802 0 0
3:55 am 03:55 Cloudy with Mist and Fog 25 -4.1 23 -4.8 95 95 S 15 24 30.27 1025 3 4.82802 0 0
4:15 am 04:15 Cloudy with Mist and Fog 25 -4.1 23 -4.8 95 95 S 16 26 30.24 1024 3 4.82802 0 0
4:35 am 04:35 Cloudy with Mist and Fog 25 -4.1 23 -4.8 95 95 S 14 22 30.24 1024 3 4.82802 0 0
4:55 am 04:55 Cloudy with Mist and Fog 25 -4 24 -4.7 95 95 S 16 26 30.24 1024 3 4.82802 0 0
5:15 am 05:15 Cloudy with Mist and Fog 25 -4 24 -4.6 96 96 S 14 22 30.21 1023 4 6.43736 0 0
5:35 am 05:35 Cloudy with Mist and Fog 25 -4.1 23 -4.8 95 95 S 13 20 30.21 1023 3 4.82802 0 0
5:55 am 05:55 Cloudy with Mist and Fog 24 -4.2 23 -4.9 95 95 S 15 24 30.21 1023 2.5 4.02335 0 0
6:15 am 06:15 Cloudy with Mist and Fog 25 -4.1 23 -4.8 95 95 S 13 20 30.21 1023 3 4.82802 0 0
6:35 am 06:35 Cloudy with Mist and Fog 25 -4 24 -4.6 96 96 S 13 20 30.21 1023 4 6.43736 0 0
6:55 am 06:55 Cloudy with Mist and Fog 24 -4.2 23 -4.9 95 95 S 16 26 30.21 1023 5 8.0467 0 0
7:15 am 07:15 Cloudy 24 -4.5 22 -5.3 94 94 S 12 19 30.21 1023 7 11.26538 0 0
7:35 am 07:35 Cloudy 24 -4.6 22 -5.5 94 94 S 13 20 30.21 1023 7 11.26538 0 0
7:55 am 07:55 Cloudy 24 -4.7 22 -5.5 94 94 S 9 15 30.21 1023 7 11.26538 0 0
8:15 am 08:15 Mostly Cloudy 23 -4.8 22 -5.6 94 94 S 13 20 30.21 1023 7 11.26538 0 0
8:35 am 08:35 Partly Cloudy with Mist and Fog 24 -4.6 22 -5.5 94 94 S 13 20 30.21 1023 5 8.0467 0 0
8:55 am 08:55 Sunny 24 -4.3 23 -5.2 94 94 S 15 24 30.21 1023 7 11.26538 0 0
9:15 am 09:15 Sunny 25 -4 23 -5 93 93 SSE 14 22 30.21 1023 7 11.26538 0 0
9:35 am 09:35 Sunny 25 -3.9 23 -5 92 92 S 16 26 30.21 1023 7 11.26538 0 0
9:55 am 09:55 Sunny 26 -3.1 24 -4.4 91 91 S 14 22 30.21 1023 7 11.26538 0 0
10:15 am 10:15 Sunny 28 -2.3 25 -3.8 90 90 S 16 26 30.15 1021 7 11.26538 0 0
10:35 am 10:35 Sunny 28 -2 25 -4 86 86 S 17 28 30.15 1021 10 16.0934 0 0
10:55 am 10:55 Sunny 30 -1.2 26 -3.5 85 85 S 18 30 30.15 1021 10 16.0934 0 0
11:15 am 11:15 Sunny 31 -0.8 25 -3.7 81 81 S 15 24 30.15 1021 10 16.0934 0 0
11:35 am 11:35 Sunny 31 -0.5 26 -3.5 80 80 S 15 24 30.12 1020 10 16.0934 0 0
11:55 am 11:55 Sunny 32 0.2 26 -3.2 78 78 S 20 31 30.09 1019 10 16.0934 0 0
12:15 pm 12:15 Sunny 33 0.6 27 -3 77 77 S 17 28 30.09 1019 10 16.0934 0 0
12:35 pm 12:35 Sunny 35 1.8 28 -2.5 73 73 S 18 30 30.06 1018 10 16.0934 0 0
12:55 pm 12:55 Sunny 38 3.5 28 -2.2 67 67 S 23 37 30.03 1017 10 16.0934 0 0
1:15 pm 13:15 Sunny 39 4 28 -2.1 65 65 S 18 30 30.03 1017 10 16.0934 0 0
1:35 pm 13:35 Sunny 41 5.1 28 -2.1 60 60 SSW 23 37 30 1016 10 16.0934 0 0
1:55 pm 13:55 Sunny 43 6 28 -2.1 56 56 S 24 39 29.97 1015 10 16.0934 0 0
2:15 pm 14:15 Sunny 45 7.2 28 -2 52 52 SSW 25 41 29.97 1015 10 16.0934 0 0
2:35 pm 14:35 Sunny 44 6.6 28 -2.5 53 53 S 24 39 29.97 1015 10 16.0934 0 0
2:55 pm 14:55 Sunny 42 5.8 27 -2.9 54 54 S 15 24 29.97 1015 10 16.0934 0 0
3:15 pm 15:15 Sunny 42 5.8 27 -3 54 54 S 15 24 29.97 1015 10 16.0934 0 0
3:35 pm 15:35 Sunny 44 6.4 28 -2.4 54 54 S 20 31 29.94 1014 10 16.0934 0 0
3:55 pm 15:55 Sunny 46 7.5 27 -2.6 49 49 S 18 30 29.94 1014 10 16.0934 0 0
4:15 pm 16:15 Sunny 42 5.5 26 -3.2 54 54 S 17 28 29.94 1014 10 16.0934 0 0
4:35 pm 16:35 Sunny 40 4.5 26 -3.1 58 58 S 14 22 30 1016 10 16.0934 0 0
4:55 pm 16:55 Sunny 40 4.5 27 -3 59 59 S 14 22 30 1016 10 16.0934 0 0
5:15 pm 17:15 Sunny 40 4.3 27 -2.6 61 61 S 13 20 30 1016 10 16.0934 0 0
5:35 pm 17:35 Clear 39 3.9 27 -2.7 62 62 S 15 24 30 1016 10 16.0934 0 0
5:55 pm 17:55 Clear 37 3 27 -2.9 66 66 S 9 15 30 1016 10 16.0934 0 0
6:15 pm 18:15 Clear 37 2.5 27 -2.8 68 68 S 9 15 30 1016 10 16.0934 0 0
6:35 pm 18:35 Clear 36 2.2 27 -2.8 70 70 S 13 20 30.03 1017 10 16.0934 0 0
6:55 pm 18:55 Clear 36 2.2 27 -2.6 71 71 SSE 13 20 30.03 1017 10 16.0934 0 0
7:15 pm 19:15 Clear 36 2 28 -2.3 73 73 SSE 13 20 30.03 1017 10 16.0934 0 0
7:35 pm 19:35 Clear 35 1.9 28 -2.2 75 75 SSE 12 19 30.03 1017 10 16.0934 0 0
7:55 pm 19:55 Clear 36 2 28 -2.3 73 73 SSE 17 28 30.03 1017 10 16.0934 0 0
8:15 pm 20:15 Clear 35 1.7 28 -2.3 75 75 SSE 18 30 30.03 1017 10 16.0934 0 0
8:35 pm 20:35 Clear 35 1.5 28 -2.1 77 77 S 16 26 30.03 1017 10 16.0934 0 0
8:55 pm 20:55 Partly Cloudy 34 1.3 28 -2 79 79 S 17 28 30.03 1017 10 16.0934 0 0
9:15 pm 21:15 Mostly Cloudy 34 1.1 28 -2 80 80 S 17 28 30.03 1017 10 16.0934 0 0
9:35 pm 21:35 Cloudy 34 1.1 29 -1.7 82 82 S 18 30 30.03 1017 10 16.0934 0 0
9:55 pm 21:55 Cloudy with Light Drizzle 34 1 30 -1.1 86 86 S 17 28 30.03 1017 10 16.0934 0 0
10:15 pm 22:15 Mostly Cloudy 33 0.8 30 -1.1 87 87 S 15 24 30.03 1017 10 16.0934 0 0
10:35 pm 22:35 Mostly Cloudy 33 0.5 30 -1.2 89 89 S 15 24 30.03 1017 10 16.0934 0 0
10:55 pm 22:55 Mostly Cloudy 33 0.5 30 -1.1 89 89 S 15 24 30.03 1017 10 16.0934 0 0
11:15 pm 23:15 Mostly Cloudy 33 0.5 30 -1.1 89 89 S 15 24 30.03 1017 10 16.0934 0 0
11:35 pm 23:35 Cloudy 33 0.5 30 -0.9 90 90 S 16 26 30.03 1017 10 16.0934 0 0
11:55 pm 23:55 Cloudy 34 1 31 -0.5 90 90 S 16 26 30.03 1017 10 16.0934 0 0

Powered by AerisWeather